Location: Saint-Palais-sur-Mer
(45.6429°N, 1.0859°W)
Time: 02:34:06
(UTC+02:00)

CUBEBUG 2 - Pass Details

Date: 02 May 2024
Orbit: 570 x 668 km, 97.8° (Epoch: 23 May)

Event Time Altitude Azimuth Distance (km) Brightness Sun altitude
Rises 03:14:31 0° 28° (NNE) 2,826 ? -26.7°
Reaches altitude 10° 03:17:13 10° 47° (NE) 1,935 ? -26.5°
Maximum altitude 03:20:12 19° 93° (E) 1,458 ? -26.3°
Enters shadow 03:20:40 19° 102° (ESE) 1,474 ? -26.3°
